Weather History for KICR - March, 2013

Change the Weather History Date:

Saturday, March 23, 2013

  Actual Average Record
Temperature  
Mean Temperature 24 °F 39 °F  
Max Temperature 28 °F 51 °F 71 °F (2012)
Min Temperature 20 °F 28 °F 9 °F (2014)
Degree Days  
Heating Degree Days 41 26  
Month to date heating degree days 793 683  
Since 1 July heating degree days 5456 5692  
Cooling Degree Days 0 0  
Month to date cooling degree days 0 0  
Year to date cooling degree days 0 0  
Moisture  
Dew Point 21 °F    
Average Humidity 82    
Maximum Humidity 100    
Minimum Humidity 63    
Precipitation  
Precipitation T in 0.05 in 0.13 in (2009)
Month to date precipitation 0.57 0.77  
Year to date precipitation 0.57 1.53  
Sea Level Pressure  
Sea Level Pressure 30.17 in    
Wind  
Wind Speed 14 mph (NNW)    
Max Wind Speed 23 mph    
Max Gust Speed 26 mph    
Visibility 7 miles    
Events Fog , Snow    
T = Trace of Precipitation, MM = Missing Value Source: NWS Daily Summary

Daily Weather History Graph

Daily Weather History Graph

Search for Another Location

Airport or City:

Trip Planner

Search our weather history database for the weather conditions in past years. The results will help you decide how hot, cold, wet, or windy it might be!

Date:

Astronomy

Mar. 23, 2013 Rise Set
Actual Time 7:36 AM CDT 7:55 PM CDT
Civil Twilight 7:08 AM CDT 8:24 PM CDT
Nautical Twilight 6:34 AM CDT 8:57 PM CDT
Astronomical Twilight 6:00 AM CDT 9:32 PM CDT
Moon 4:18 PM CDT (3/23) 5:19 AM CDT (3/23)
Length of Visible Light 13h 16m
Length of Day
12h 18m
Waxing Gibbous, 85% of the Moon is Illuminated
Mar 23
Waxing Gibbous
Mar 27
Full
Apr 2
Last Quarter
Apr 10
New
Apr 18
First Quarter

Hourly Weather History & Observations

Time (CDT) Temp. Windchill Dew Point Humidity Pressure Visibility Wind Dir Wind Speed Gust Speed Precip Events Conditions
12:43 AM 26.6 °F - 26.6 °F 100% 30.04 in 2.0 mi Calm Calm - N/A   Overcast
12:53 AM 27.0 °F - 26.1 °F 96% 30.12 in 2.0 mi Calm Calm - N/A   Overcast
1:04 AM 26.6 °F - 24.8 °F 93% 30.05 in 1.5 mi Calm Calm - N/A   Overcast
1:41 AM 26.6 °F 21.2 °F 26.6 °F 100% 30.04 in 0.8 mi NNW 4.6 mph - N/A   Overcast
1:53 AM 27.0 °F 20.5 °F 26.1 °F 96% 30.12 in 0.5 mi NNW 5.8 mph - N/A Fog Light Freezing Fog
2:53 AM 27.0 °F 20.5 °F 26.1 °F 96% 30.12 in 0.2 mi North 5.8 mph - N/A Fog Light Freezing Fog
3:37 AM 26.6 °F 21.2 °F 26.6 °F 100% 30.07 in 1.0 mi NNW 4.6 mph - N/A   Overcast
3:53 AM 27.0 °F 20.5 °F 26.1 °F 96% 30.14 in 1.8 mi NNW 5.8 mph - 0.00 in   Overcast
3:56 AM 28.4 °F 22.2 °F 26.6 °F 93% 30.07 in 2.5 mi NNW 5.8 mph - 0.00 in   Overcast
4:42 AM 28.4 °F 21.2 °F 26.6 °F 93% 30.07 in 3.0 mi NNW 6.9 mph - 0.00 in   Overcast
4:53 AM 28.0 °F 20.0 °F 26.1 °F 92% 30.14 in 3.0 mi NNW 8.1 mph - 0.00 in   Overcast
5:06 AM 28.4 °F 20.4 °F 26.6 °F 93% 30.07 in 2.5 mi NNW 8.1 mph - 0.00 in   Overcast
5:38 AM 28.4 °F 19.7 °F 26.6 °F 93% 30.07 in 3.0 mi North 9.2 mph - 0.00 in   Overcast
5:53 AM 28.0 °F 19.3 °F 26.1 °F 92% 30.14 in 3.0 mi NNW 9.2 mph - 0.00 in   Overcast
6:39 AM 26.6 °F 16.8 °F 24.8 °F 93% 30.09 in 5.0 mi NNW 10.4 mph - 0.00 in   Overcast
6:53 AM 27.0 °F 16.1 °F 25.0 °F 92% 30.18 in 5.0 mi NNW 12.7 mph - 0.00 in   Overcast
7:53 AM 24.1 °F 10.6 °F 21.0 °F 88% 30.19 in 10.0 mi NW 17.3 mph - 0.00 in   Overcast
8:10 AM 24.8 °F 11.5 °F 21.2 °F 86% 30.12 in 8.0 mi NNW 17.3 mph - N/A   Overcast
8:53 AM 23.0 °F 9.6 °F 19.9 °F 88% 30.22 in 8.0 mi NNW 16.1 mph 21.9 mph N/A   Overcast
9:05 AM 23.0 °F 8.7 °F 19.4 °F 86% 30.14 in 9.0 mi NW 18.4 mph - N/A   Overcast
9:20 AM 21.2 °F 6.8 °F 19.4 °F 93% 30.15 in 10.0 mi NW 17.3 mph - N/A   Overcast
9:53 AM 21.9 °F 8.7 °F 17.1 °F 82% 30.25 in 10.0 mi NW 15.0 mph - N/A   Overcast
10:36 AM 21.2 °F 6.0 °F 15.8 °F 80% 30.16 in 9.0 mi NW 19.6 mph - N/A   Overcast
10:53 AM 21.9 °F 7.8 °F 15.1 °F 75% 30.25 in 8.0 mi NNW 17.3 mph - 0.00 in Snow Light Snow
11:53 AM 23.0 °F 8.7 °F 14.0 °F 68% 30.25 in 10.0 mi NNW 18.4 mph - N/A   Overcast
12:26 PM 24.8 °F 11.5 °F 14.0 °F 64% 30.16 in 10.0 mi NNW 17.3 mph - N/A   Overcast
12:53 PM 25.0 °F 12.2 °F 15.1 °F 66% 30.24 in 10.0 mi NNW 16.1 mph - N/A   Overcast
1:53 PM 27.0 °F 13.5 °F 16.0 °F 63% 30.24 in 10.0 mi NNW 19.6 mph - N/A   Clear
2:22 PM 26.6 °F 13.4 °F 17.6 °F 69% 30.16 in 10.0 mi NNW 18.4 mph - N/A   Mostly Cloudy
2:53 PM 27.0 °F 14.3 °F 17.1 °F 66% 30.24 in 10.0 mi NNW 17.3 mph 25.3 mph N/A   Mostly Cloudy
3:53 PM 27.0 °F 13.2 °F 17.1 °F 66% 30.24 in 10.0 mi NNW 20.7 mph - N/A   Overcast
4:53 PM 27.0 °F 14.7 °F 18.0 °F 69% 30.24 in 10.0 mi North 16.1 mph - N/A   Overcast
5:19 PM 26.6 °F 13.1 °F 17.6 °F 69% 30.17 in 10.0 mi NNW 19.6 mph - N/A   Overcast
5:53 PM 27.0 °F 12.8 °F 17.1 °F 66% 30.24 in 10.0 mi North 21.9 mph - N/A   Overcast
6:53 PM 27.0 °F 14.3 °F 18.0 °F 69% 30.25 in 10.0 mi NNW 17.3 mph - N/A   Overcast
7:12 PM 26.6 °F 13.8 °F 17.6 °F 69% 30.18 in 10.0 mi NNW 17.3 mph - N/A   Overcast
7:20 PM 26.6 °F 14.7 °F 17.6 °F 69% 30.18 in 10.0 mi NNW 15.0 mph - N/A   Overcast
7:53 PM 25.0 °F 12.2 °F 18.0 °F 75% 30.27 in 10.0 mi NNW 16.1 mph - N/A   Overcast
8:53 PM 25.0 °F 13.6 °F 17.1 °F 72% 30.28 in 10.0 mi NNW 12.7 mph - N/A   Overcast
9:53 PM 21.9 °F 14.5 °F 16.0 °F 78% 30.30 in 10.0 mi NNW 5.8 mph - N/A   Clear
10:53 PM 21.9 °F 9.8 °F 16.0 °F 78% 30.30 in 10.0 mi NNW 12.7 mph - N/A   Overcast
11:53 PM 21.9 °F 9.8 °F 15.1 °F 75% 30.30 in 10.0 mi NNW 12.7 mph - N/A   Mostly Cloudy